Year,Month,Day,Hour,Minute,Value (Times are PST for windspeed in km/hr)
2010,06,05,00,00,8.10
2010,06,05,00,01,4.10
2010,06,05,00,02,5.60
2010,06,05,00,03,5.40
2010,06,05,00,04,4.70
2010,06,05,00,05,5.00
2010,06,05,00,06,5.10
2010,06,05,00,07,7.30
2010,06,05,00,08,4.50
2010,06,05,00,09,5.10
2010,06,05,00,10,10.70
2010,06,05,00,11,5.20
2010,06,05,00,12,3.70
2010,06,05,00,13,7.30
2010,06,05,00,14,7.10
2010,06,05,00,15,4.30
2010,06,05,00,16,2.90
2010,06,05,00,17,4.80
2010,06,05,00,18,6.70
2010,06,05,00,19,5.80
2010,06,05,00,20,6.60
2010,06,05,00,21,4.50
2010,06,05,00,22,6.10
2010,06,05,00,23,6.10
2010,06,05,00,24,6.40
2010,06,05,00,25,5.70
2010,06,05,00,26,5.00
2010,06,05,00,27,4.90
2010,06,05,00,28,4.00
2010,06,05,00,29,6.30
2010,06,05,00,30,3.40
2010,06,05,00,31,4.30
2010,06,05,00,32,4.10
2010,06,05,00,33,6.30
2010,06,05,00,34,3.90
2010,06,05,00,35,4.40
2010,06,05,00,36,5.90
2010,06,05,00,37,6.10
2010,06,05,00,38,4.70
2010,06,05,00,39,4.00
2010,06,05,00,40,8.80
2010,06,05,00,41,6.60
2010,06,05,00,42,6.10
2010,06,05,00,43,6.70
2010,06,05,00,44,5.80
2010,06,05,00,45,5.90
2010,06,05,00,46,7.00
2010,06,05,00,47,9.70
2010,06,05,00,48,8.30
2010,06,05,00,49,6.40
2010,06,05,00,50,5.40
2010,06,05,00,51,8.30
2010,06,05,00,52,2.60
2010,06,05,00,53,1.80
2010,06,05,00,54,3.50
2010,06,05,00,55,6.90
2010,06,05,00,56,5.60
2010,06,05,00,57,3.00
2010,06,05,00,58,8.30
2010,06,05,00,59,1.70
2010,06,05,01,00,5.00
2010,06,05,01,01,5.30
2010,06,05,01,02,5.50
2010,06,05,01,03,5.60
2010,06,05,01,04,5.50
2010,06,05,01,05,3.30
2010,06,05,01,06,1.90
2010,06,05,01,07,2.40
2010,06,05,01,08,7.00
2010,06,05,01,09,4.70
2010,06,05,01,10,3.70
2010,06,05,01,11,6.90
2010,06,05,01,12,6.70
2010,06,05,01,13,4.30
2010,06,05,01,14,5.90
2010,06,05,01,15,5.50
2010,06,05,01,16,8.00
2010,06,05,01,17,7.80
2010,06,05,01,18,5.50
2010,06,05,01,19,4.50
2010,06,05,01,20,5.40
2010,06,05,01,21,4.80
2010,06,05,01,22,6.50
2010,06,05,01,23,6.70
2010,06,05,01,24,5.70
2010,06,05,01,25,5.00
2010,06,05,01,26,4.30
2010,06,05,01,27,5.50
2010,06,05,01,28,4.90
2010,06,05,01,29,5.20
2010,06,05,01,30,4.00
2010,06,05,01,31,5.10
2010,06,05,01,32,5.60
2010,06,05,01,33,6.20
2010,06,05,01,34,4.60
2010,06,05,01,35,6.20
2010,06,05,01,36,4.60
2010,06,05,01,37,4.40
2010,06,05,01,38,2.80
2010,06,05,01,39,5.90
2010,06,05,01,40,5.60
2010,06,05,01,41,4.90
2010,06,05,01,42,5.20
2010,06,05,01,43,4.30
2010,06,05,01,44,4.60
2010,06,05,01,45,5.70
2010,06,05,01,46,4.20
2010,06,05,01,47,1.60
2010,06,05,01,48,4.00
2010,06,05,01,49,3.10
2010,06,05,01,50,4.20
2010,06,05,01,51,2.30
2010,06,05,01,52,2.80
2010,06,05,01,53,1.40
2010,06,05,01,54,1.80
2010,06,05,01,55,2.90
2010,06,05,01,56,5.40
2010,06,05,01,57,2.00
2010,06,05,01,58,2.90
2010,06,05,01,59,2.00
2010,06,05,02,00,3.40
2010,06,05,02,01,5.40
2010,06,05,02,02,4.00
2010,06,05,02,03,4.20
2010,06,05,02,04,7.40
2010,06,05,02,05,5.30
2010,06,05,02,06,3.20
2010,06,05,02,07,3.60
2010,06,05,02,08,5.40
2010,06,05,02,09,3.40
2010,06,05,02,10,2.50
2010,06,05,02,11,3.60
2010,06,05,02,12,4.60
2010,06,05,02,13,2.90
2010,06,05,02,14,3.70
2010,06,05,02,15,6.80
2010,06,05,02,16,5.00
2010,06,05,02,17,3.80
2010,06,05,02,18,3.10
2010,06,05,02,19,2.70
2010,06,05,02,20,3.00
2010,06,05,02,21,3.80
2010,06,05,02,22,4.20
2010,06,05,02,23,2.40
2010,06,05,02,24,2.40
2010,06,05,02,25,3.30
2010,06,05,02,26,2.80
2010,06,05,02,27,4.40
2010,06,05,02,28,2.90
2010,06,05,02,29,4.10
2010,06,05,02,30,4.30
2010,06,05,02,31,2.00
2010,06,05,02,32,1.70
2010,06,05,02,33,1.40
2010,06,05,02,34,2.90
2010,06,05,02,35,1.70
2010,06,05,02,36,1.00
2010,06,05,02,37,2.40
2010,06,05,02,38,1.40
2010,06,05,02,39,0.50
2010,06,05,02,40,3.40
2010,06,05,02,41,2.90
2010,06,05,02,42,1.60
2010,06,05,02,43,1.60
2010,06,05,02,44,2.80
2010,06,05,02,45,1.60
2010,06,05,02,46,3.80
2010,06,05,02,47,1.50
2010,06,05,02,48,0.90
2010,06,05,02,49,1.20
2010,06,05,02,50,1.80
2010,06,05,02,51,0.70
2010,06,05,02,52,1.20
2010,06,05,02,53,0.40
2010,06,05,02,54,0.50
2010,06,05,02,55,1.20
2010,06,05,02,56,3.00
2010,06,05,02,57,0.90
2010,06,05,02,58,3.60
2010,06,05,02,59,2.00
2010,06,05,03,00,3.40
2010,06,05,03,01,4.50
2010,06,05,03,02,0.50
2010,06,05,03,03,2.90
2010,06,05,03,04,2.00
2010,06,05,03,05,3.50
2010,06,05,03,06,3.90
2010,06,05,03,07,2.10
2010,06,05,03,08,3.40
2010,06,05,03,09,0.90
2010,06,05,03,10,1.70
2010,06,05,03,11,1.20
2010,06,05,03,12,0.50
2010,06,05,03,13,1.70
2010,06,05,03,14,1.70
2010,06,05,03,15,2.30
2010,06,05,03,16,2.20
2010,06,05,03,17,2.40
2010,06,05,03,18,4.80
2010,06,05,03,19,2.60
2010,06,05,03,20,1.40
2010,06,05,03,21,0.70
2010,06,05,03,22,0.90
2010,06,05,03,23,2.70
2010,06,05,03,24,0.80
2010,06,05,03,25,0.60
2010,06,05,03,26,2.40
2010,06,05,03,27,0.20
2010,06,05,03,28,0.60
2010,06,05,03,29,1.90
2010,06,05,03,30,0.80
2010,06,05,03,31,0.70
2010,06,05,03,32,2.00
2010,06,05,03,33,1.50
2010,06,05,03,34,4.20
2010,06,05,03,35,3.50
2010,06,05,03,36,2.80
2010,06,05,03,37,1.30
2010,06,05,03,38,1.70
2010,06,05,03,39,3.30
2010,06,05,03,40,2.40
2010,06,05,03,41,1.50
2010,06,05,03,42,1.30
2010,06,05,03,43,3.90
2010,06,05,03,44,1.80
2010,06,05,03,45,1.50
2010,06,05,03,46,1.20
2010,06,05,03,47,1.70
2010,06,05,03,48,0.50
2010,06,05,03,49,0.20
2010,06,05,03,50,1.70
2010,06,05,03,51,0.60
2010,06,05,03,52,1.30
2010,06,05,03,53,1.60
2010,06,05,03,54,0.30
2010,06,05,03,55,2.50
2010,06,05,03,56,3.40
2010,06,05,03,57,0.70
2010,06,05,03,58,0.20
2010,06,05,03,59,1.40
2010,06,05,04,00,0.70
2010,06,05,04,01,0.80
2010,06,05,04,02,2.40
2010,06,05,04,03,0.00
2010,06,05,04,04,2.20
2010,06,05,04,05,1.40
2010,06,05,04,06,1.90
2010,06,05,04,07,1.30
2010,06,05,04,08,4.80
2010,06,05,04,09,1.20
2010,06,05,04,10,0.80
2010,06,05,04,11,2.30
2010,06,05,04,12,0.50
2010,06,05,04,13,2.10
2010,06,05,04,14,0.50
2010,06,05,04,15,1.00
2010,06,05,04,16,1.00
2010,06,05,04,17,0.90
2010,06,05,04,18,0.20
2010,06,05,04,19,0.70
2010,06,05,04,20,0.70
2010,06,05,04,21,0.60
2010,06,05,04,22,1.70
2010,06,05,04,23,2.20
2010,06,05,04,24,1.90
2010,06,05,04,25,2.80
2010,06,05,04,26,1.00
2010,06,05,04,27,2.20
2010,06,05,04,28,2.10
2010,06,05,04,29,1.70
2010,06,05,04,30,0.50
2010,06,05,04,31,1.60
2010,06,05,04,32,2.10
2010,06,05,04,33,1.00
2010,06,05,04,34,0.90
2010,06,05,04,35,2.60
2010,06,05,04,36,1.80
2010,06,05,04,37,0.50
2010,06,05,04,38,1.80
2010,06,05,04,39,3.40
2010,06,05,04,40,1.00
2010,06,05,04,41,1.00
2010,06,05,04,42,1.10
2010,06,05,04,43,1.40
2010,06,05,04,44,0.30
2010,06,05,04,45,0.50
2010,06,05,04,46,0.50
2010,06,05,04,47,1.50
2010,06,05,04,48,0.10
2010,06,05,04,49,0.00
2010,06,05,04,50,1.80
2010,06,05,04,51,1.00
2010,06,05,04,52,0.10
2010,06,05,04,53,0.70
2010,06,05,04,54,2.00
2010,06,05,04,55,1.20
2010,06,05,04,56,0.10
2010,06,05,04,57,2.40
2010,06,05,04,58,0.40
2010,06,05,04,59,1.60
2010,06,05,05,00,0.00
2010,06,05,05,01,0.80
2010,06,05,05,02,3.30
2010,06,05,05,03,2.50
2010,06,05,05,04,4.90
2010,06,05,05,05,1.50
2010,06,05,05,06,0.00
2010,06,05,05,07,0.80
2010,06,05,05,08,1.60
2010,06,05,05,09,0.30
2010,06,05,05,10,0.50
2010,06,05,05,11,0.90
2010,06,05,05,12,0.60
2010,06,05,05,13,0.00
2010,06,05,05,14,0.20
2010,06,05,05,15,0.10
2010,06,05,05,16,0.10
2010,06,05,05,17,2.60
2010,06,05,05,18,0.40
2010,06,05,05,19,0.60
2010,06,05,05,20,1.40
2010,06,05,05,21,1.10
2010,06,05,05,22,0.40
2010,06,05,05,23,1.50
2010,06,05,05,24,3.80
2010,06,05,05,25,0.00
2010,06,05,05,26,0.00
2010,06,05,05,27,0.10
2010,06,05,05,28,0.80
2010,06,05,05,29,1.70
2010,06,05,05,30,0.10
2010,06,05,05,31,1.80
2010,06,05,05,32,2.70
2010,06,05,05,33,1.60
2010,06,05,05,34,0.50
2010,06,05,05,35,0.10
2010,06,05,05,36,0.10
2010,06,05,05,37,0.80
2010,06,05,05,38,0.90
2010,06,05,05,39,0.50
2010,06,05,05,40,2.30
2010,06,05,05,41,2.00
2010,06,05,05,42,2.00
2010,06,05,05,43,1.20
2010,06,05,05,44,4.50
2010,06,05,05,45,0.80
2010,06,05,05,46,1.20
2010,06,05,05,47,1.50
2010,06,05,05,48,0.30
2010,06,05,05,49,1.70
2010,06,05,05,50,0.90
2010,06,05,05,51,4.80
2010,06,05,05,52,0.90
2010,06,05,05,53,0.60
2010,06,05,05,54,0.10
2010,06,05,05,55,0.70
2010,06,05,05,56,6.00
2010,06,05,05,57,1.40
2010,06,05,05,58,1.80
2010,06,05,05,59,0.20
2010,06,05,06,00,0.70
2010,06,05,06,01,0.80
2010,06,05,06,02,1.80
2010,06,05,06,03,0.50
2010,06,05,06,04,0.80
2010,06,05,06,05,4.50
2010,06,05,06,06,1.10
2010,06,05,06,07,0.00
2010,06,05,06,08,0.20
2010,06,05,06,09,0.90
2010,06,05,06,10,0.00
2010,06,05,06,11,0.40
2010,06,05,06,12,1.70
2010,06,05,06,13,0.30
2010,06,05,06,14,0.10
2010,06,05,06,15,0.40
2010,06,05,06,16,0.20
2010,06,05,06,17,1.50
2010,06,05,06,18,1.30
2010,06,05,06,19,0.30
2010,06,05,06,20,0.80
2010,06,05,06,21,0.70
2010,06,05,06,22,3.20
2010,06,05,06,23,0.00
2010,06,05,06,24,5.00
2010,06,05,06,25,4.20
2010,06,05,06,26,0.80
2010,06,05,06,27,3.30
2010,06,05,06,28,0.90
2010,06,05,06,29,4.10
2010,06,05,06,30,2.90
2010,06,05,06,31,3.40
2010,06,05,06,32,5.70
2010,06,05,06,33,0.40
2010,06,05,06,34,3.80
2010,06,05,06,35,4.30
2010,06,05,06,36,1.10
2010,06,05,06,37,2.00
2010,06,05,06,38,4.90
2010,06,05,06,39,5.50
2010,06,05,06,40,0.20
2010,06,05,06,41,0.50
2010,06,05,06,42,0.00
2010,06,05,06,43,0.70
2010,06,05,06,44,2.70
2010,06,05,06,45,0.40
2010,06,05,06,46,2.00
2010,06,05,06,47,0.10
2010,06,05,06,48,1.40
2010,06,05,06,49,3.60
2010,06,05,06,50,7.50
2010,06,05,06,51,6.70
2010,06,05,06,52,6.10
2010,06,05,06,53,1.00
2010,06,05,06,54,1.90
2010,06,05,06,55,1.20
2010,06,05,06,56,2.40
2010,06,05,06,57,2.00
2010,06,05,06,58,2.60
2010,06,05,06,59,1.20
2010,06,05,07,00,3.00
2010,06,05,07,01,3.80
2010,06,05,07,02,2.80
2010,06,05,07,03,1.20
2010,06,05,07,04,7.10
2010,06,05,07,05,2.60
2010,06,05,07,06,2.00
2010,06,05,07,07,0.60
2010,06,05,07,08,0.20
2010,06,05,07,09,0.60
2010,06,05,07,10,5.90
2010,06,05,07,11,3.00
2010,06,05,07,12,2.00
2010,06,05,07,13,1.10
2010,06,05,07,14,1.20
2010,06,05,07,15,3.10
2010,06,05,07,16,3.40
2010,06,05,07,17,1.90
2010,06,05,07,18,3.50
2010,06,05,07,19,2.50
2010,06,05,07,20,5.60
2010,06,05,07,21,7.00
2010,06,05,07,22,4.50
2010,06,05,07,23,7.70
2010,06,05,07,24,4.80
2010,06,05,07,25,5.30
2010,06,05,07,26,4.80
2010,06,05,07,27,3.80
2010,06,05,07,28,2.50
2010,06,05,07,29,1.70
2010,06,05,07,30,1.60
2010,06,05,07,31,2.50
2010,06,05,07,32,2.00
2010,06,05,07,33,6.30
2010,06,05,07,34,6.00
2010,06,05,07,35,6.90
2010,06,05,07,36,6.60
2010,06,05,07,37,4.20
2010,06,05,07,38,2.70
2010,06,05,07,39,0.30
2010,06,05,07,40,3.00
2010,06,05,07,41,2.80
2010,06,05,07,42,1.00
2010,06,05,07,43,4.50
2010,06,05,07,44,5.80
2010,06,05,07,45,3.90
2010,06,05,07,46,4.00
2010,06,05,07,47,3.80
2010,06,05,07,48,5.20
2010,06,05,07,49,3.40
2010,06,05,07,50,2.90
2010,06,05,07,51,0.40
2010,06,05,07,52,1.60
2010,06,05,07,53,3.50
2010,06,05,07,54,1.10
2010,06,05,07,55,0.50
2010,06,05,07,56,2.30
2010,06,05,07,57,1.50
2010,06,05,07,58,1.20
2010,06,05,07,59,0.00
2010,06,05,08,00,0.10
2010,06,05,08,01,2.20
2010,06,05,08,02,5.40
2010,06,05,08,03,2.00
2010,06,05,08,04,0.80
2010,06,05,08,05,1.20
2010,06,05,08,06,2.00
2010,06,05,08,07,1.30
2010,06,05,08,08,2.70
2010,06,05,08,09,1.80
2010,06,05,08,10,5.60
2010,06,05,08,11,5.30
2010,06,05,08,12,4.50
2010,06,05,08,13,5.60
2010,06,05,08,14,4.90
2010,06,05,08,15,2.70
2010,06,05,08,16,1.20
2010,06,05,08,17,1.40
2010,06,05,08,18,1.70
2010,06,05,08,19,6.70
2010,06,05,08,20,7.90
2010,06,05,08,21,4.70
2010,06,05,08,22,8.60
2010,06,05,08,23,7.10
2010,06,05,08,24,3.80
2010,06,05,08,25,4.70
2010,06,05,08,26,4.80
2010,06,05,08,27,5.30
2010,06,05,08,28,7.10
2010,06,05,08,29,7.10
2010,06,05,08,30,6.40
2010,06,05,08,31,1.90
2010,06,05,08,32,3.30
2010,06,05,08,33,4.80
2010,06,05,08,34,3.00
2010,06,05,08,35,1.30
2010,06,05,08,36,5.90
2010,06,05,08,37,1.90
2010,06,05,08,38,7.70
2010,06,05,08,39,7.60
2010,06,05,08,40,2.60
2010,06,05,08,41,3.50
2010,06,05,08,42,1.50
2010,06,05,08,43,4.80
2010,06,05,08,44,7.30
2010,06,05,08,45,7.50
2010,06,05,08,46,4.50
2010,06,05,08,47,5.40
2010,06,05,08,48,6.30
2010,06,05,08,49,6.10
2010,06,05,08,50,3.50
2010,06,05,08,51,8.50
2010,06,05,08,52,5.00
2010,06,05,08,53,4.50
2010,06,05,08,54,5.40
2010,06,05,08,55,0.90
2010,06,05,08,56,2.40
2010,06,05,08,57,2.00
2010,06,05,08,58,4.70
2010,06,05,08,59,5.60
2010,06,05,09,00,7.10
2010,06,05,09,01,10.40
2010,06,05,09,02,7.40
2010,06,05,09,03,4.10
2010,06,05,09,04,3.70
2010,06,05,09,05,1.50
2010,06,05,09,06,7.80
2010,06,05,09,07,6.10
2010,06,05,09,08,0.90
2010,06,05,09,09,5.00
2010,06,05,09,10,1.70
2010,06,05,09,11,0.60
2010,06,05,09,12,0.70
2010,06,05,09,13,1.20
2010,06,05,09,14,1.10
2010,06,05,09,15,2.30
2010,06,05,09,16,0.30
2010,06,05,09,17,2.10
2010,06,05,09,18,3.40
2010,06,05,09,19,4.60
2010,06,05,09,20,5.10
2010,06,05,09,21,5.20
2010,06,05,09,22,3.90
2010,06,05,09,23,2.70
2010,06,05,09,24,0.20
2010,06,05,09,25,6.30
2010,06,05,09,26,7.30
2010,06,05,09,27,6.10
2010,06,05,09,28,3.20
2010,06,05,09,29,3.50
2010,06,05,09,30,11.00
2010,06,05,09,31,4.20
2010,06,05,09,32,7.60
2010,06,05,09,33,5.40
2010,06,05,09,34,4.70
2010,06,05,09,35,6.60
2010,06,05,09,36,5.30
2010,06,05,09,37,8.60
2010,06,05,09,38,7.40
2010,06,05,09,39,5.20
2010,06,05,09,40,6.10
2010,06,05,09,41,7.60
2010,06,05,09,42,9.70
2010,06,05,09,43,7.70
2010,06,05,09,44,5.50
2010,06,05,09,45,6.50
2010,06,05,09,46,8.40
2010,06,05,09,47,6.80
2010,06,05,09,48,8.40
2010,06,05,09,49,7.30
2010,06,05,09,50,5.50
2010,06,05,09,51,7.20
2010,06,05,09,52,7.10
2010,06,05,09,53,5.60
2010,06,05,09,54,6.90
2010,06,05,09,55,10.80
2010,06,05,09,56,8.80
2010,06,05,09,57,6.80
2010,06,05,09,58,8.40
2010,06,05,09,59,10.80
2010,06,05,10,00,9.50
2010,06,05,10,01,7.00
2010,06,05,10,02,3.00
2010,06,05,10,03,2.20
2010,06,05,10,04,5.00
2010,06,05,10,05,3.70
2010,06,05,10,06,6.00
2010,06,05,10,07,7.50
2010,06,05,10,08,10.90
2010,06,05,10,09,8.40
2010,06,05,10,10,10.60
2010,06,05,10,11,4.70
2010,06,05,10,12,12.80
2010,06,05,10,13,11.90
2010,06,05,10,14,6.20
2010,06,05,10,15,4.50
2010,06,05,10,16,5.80
2010,06,05,10,17,7.70
2010,06,05,10,18,5.90
2010,06,05,10,19,7.20
2010,06,05,10,20,5.30
2010,06,05,10,21,4.20
2010,06,05,10,22,3.90
2010,06,05,10,23,1.50
2010,06,05,10,24,3.40
2010,06,05,10,25,7.20
2010,06,05,10,26,3.90
2010,06,05,10,27,7.30
2010,06,05,10,28,5.30
2010,06,05,10,29,4.70
2010,06,05,10,30,11.40
2010,06,05,10,31,12.80
2010,06,05,10,32,7.70
2010,06,05,10,33,9.00
2010,06,05,10,34,8.50
2010,06,05,10,35,6.60
2010,06,05,10,36,8.90
2010,06,05,10,37,7.20
2010,06,05,10,38,7.90
2010,06,05,10,39,11.10
2010,06,05,10,40,11.50
2010,06,05,10,41,12.30
2010,06,05,10,42,9.90
2010,06,05,10,43,3.80
2010,06,05,10,44,10.80
2010,06,05,10,45,3.80
2010,06,05,10,46,2.50
2010,06,05,10,47,4.90
2010,06,05,10,48,6.80
2010,06,05,10,49,7.60
2010,06,05,10,50,6.30
2010,06,05,10,51,5.50
2010,06,05,10,52,3.30
2010,06,05,10,53,7.30
2010,06,05,10,54,5.90
2010,06,05,10,55,3.00
2010,06,05,10,56,7.20
2010,06,05,10,57,7.40
2010,06,05,10,58,4.40
2010,06,05,10,59,4.40
2010,06,05,11,00,5.10
2010,06,05,11,01,7.00
2010,06,05,11,02,9.70
2010,06,05,11,03,7.90
2010,06,05,11,04,5.70
2010,06,05,11,05,9.30
2010,06,05,11,06,9.30
2010,06,05,11,07,7.70
2010,06,05,11,08,9.70
2010,06,05,11,09,8.50
2010,06,05,11,10,9.60
2010,06,05,11,11,9.10
2010,06,05,11,12,9.80
2010,06,05,11,13,8.00
2010,06,05,11,14,8.30
2010,06,05,11,15,9.70
2010,06,05,11,16,10.10
2010,06,05,11,17,9.00
2010,06,05,11,18,11.10
2010,06,05,11,19,10.40
2010,06,05,11,20,11.10
2010,06,05,11,21,13.50
2010,06,05,11,22,9.90
2010,06,05,11,23,10.80
2010,06,05,11,24,12.00
2010,06,05,11,25,10.70
2010,06,05,11,26,9.00
2010,06,05,11,27,11.40
2010,06,05,11,28,12.40
2010,06,05,11,29,13.20
2010,06,05,11,30,9.70
2010,06,05,11,31,10.40
2010,06,05,11,32,9.20
2010,06,05,11,33,8.00
2010,06,05,11,34,9.40
2010,06,05,11,35,7.70
2010,06,05,11,36,6.70
2010,06,05,11,37,5.80
2010,06,05,11,38,8.10
2010,06,05,11,39,6.80
2010,06,05,11,40,6.90
2010,06,05,11,41,6.50
2010,06,05,11,42,9.30
2010,06,05,11,43,6.40
2010,06,05,11,44,10.80
2010,06,05,11,45,6.40
2010,06,05,11,46,5.80
2010,06,05,11,47,9.70
2010,06,05,11,48,7.40
2010,06,05,11,49,9.60
2010,06,05,11,50,8.50
2010,06,05,11,51,7.40
2010,06,05,11,52,7.50
2010,06,05,11,53,10.30
2010,06,05,11,54,9.70
2010,06,05,11,55,6.60
2010,06,05,11,56,6.30
2010,06,05,11,57,7.20
2010,06,05,11,58,11.40
2010,06,05,11,59,6.60
2010,06,05,12,00,10.10
2010,06,05,12,01,9.80
2010,06,05,12,02,12.40
2010,06,05,12,03,13.80
2010,06,05,12,04,10.70
2010,06,05,12,05,9.70
2010,06,05,12,06,10.10
2010,06,05,12,07,13.90
2010,06,05,12,08,8.30
2010,06,05,12,09,8.80
2010,06,05,12,10,9.50
2010,06,05,12,11,9.00
2010,06,05,12,12,8.10
2010,06,05,12,13,9.30
2010,06,05,12,14,7.10
2010,06,05,12,15,12.10
2010,06,05,12,16,11.10
2010,06,05,12,17,6.70
2010,06,05,12,18,9.60
2010,06,05,12,19,8.10
2010,06,05,12,20,13.90
2010,06,05,12,21,10.50
2010,06,05,12,22,8.50
2010,06,05,12,23,8.20
2010,06,05,12,24,6.60
2010,06,05,12,25,8.90
2010,06,05,12,26,10.70
2010,06,05,12,27,11.80
2010,06,05,12,28,7.00
2010,06,05,12,29,8.10
2010,06,05,12,30,9.60
2010,06,05,12,31,8.70
2010,06,05,12,32,9.20
2010,06,05,12,33,10.70
2010,06,05,12,34,7.00
2010,06,05,12,35,9.20
2010,06,05,12,36,8.30
2010,06,05,12,37,12.40
2010,06,05,12,38,6.60
2010,06,05,12,39,2.60
2010,06,05,12,40,3.20
2010,06,05,12,41,5.40
2010,06,05,12,42,9.00
2010,06,05,12,43,9.00
2010,06,05,12,44,8.80
2010,06,05,12,45,6.90
2010,06,05,12,46,5.20
2010,06,05,12,47,7.00
2010,06,05,12,48,9.10
2010,06,05,12,49,7.70
2010,06,05,12,50,2.60
2010,06,05,12,51,7.00
2010,06,05,12,52,7.40
2010,06,05,12,53,8.10
2010,06,05,12,54,8.60
2010,06,05,12,55,8.50
2010,06,05,12,56,5.00
2010,06,05,12,57,9.20
2010,06,05,12,58,7.40
2010,06,05,12,59,7.00
2010,06,05,13,00,7.20
2010,06,05,13,01,8.00
2010,06,05,13,02,7.00
2010,06,05,13,03,3.50
2010,06,05,13,04,4.70
2010,06,05,13,05,5.00
2010,06,05,13,06,9.70
2010,06,05,13,07,9.40
2010,06,05,13,08,9.70
2010,06,05,13,09,6.80
2010,06,05,13,10,8.10
2010,06,05,13,11,6.60
2010,06,05,13,12,9.10
2010,06,05,13,13,9.40
2010,06,05,13,14,6.60
2010,06,05,13,15,12.60
2010,06,05,13,16,11.20
2010,06,05,13,17,4.80
2010,06,05,13,18,8.80
2010,06,05,13,19,6.20
2010,06,05,13,20,8.60
2010,06,05,13,21,8.80
2010,06,05,13,22,7.80
2010,06,05,13,23,6.00
2010,06,05,13,24,9.20
2010,06,05,13,25,9.20
2010,06,05,13,26,9.80
2010,06,05,13,27,10.70
2010,06,05,13,28,5.40
2010,06,05,13,29,13.60
2010,06,05,13,30,11.20
2010,06,05,13,31,11.90
2010,06,05,13,32,11.70
2010,06,05,13,33,10.30
2010,06,05,13,34,13.10
2010,06,05,13,35,11.90
2010,06,05,13,36,8.90
2010,06,05,13,37,8.20
2010,06,05,13,38,11.60
2010,06,05,13,39,8.00
2010,06,05,13,40,6.60
2010,06,05,13,41,8.20
2010,06,05,13,42,6.40
2010,06,05,13,43,5.10
2010,06,05,13,44,7.10
2010,06,05,13,45,6.40
2010,06,05,13,46,6.30
2010,06,05,13,47,5.10
2010,06,05,13,48,9.80
2010,06,05,13,49,8.10
2010,06,05,13,50,6.40
2010,06,05,13,51,8.70
2010,06,05,13,52,5.20
2010,06,05,13,53,6.30
2010,06,05,13,54,8.90
2010,06,05,13,55,10.20
2010,06,05,13,56,8.30
2010,06,05,13,57,8.90
2010,06,05,13,58,6.70
2010,06,05,13,59,8.10
2010,06,05,14,00,12.90
2010,06,05,14,01,6.40
2010,06,05,14,02,10.50
2010,06,05,14,03,8.90
2010,06,05,14,04,7.70
2010,06,05,14,05,7.60
2010,06,05,14,06,10.30
2010,06,05,14,07,10.00
2010,06,05,14,08,11.10
2010,06,05,14,09,7.80
2010,06,05,14,10,6.90
2010,06,05,14,11,7.40
2010,06,05,14,12,7.10
2010,06,05,14,13,9.50
2010,06,05,14,14,5.10
2010,06,05,14,15,7.50
2010,06,05,14,16,5.00
2010,06,05,14,17,9.40
2010,06,05,14,18,12.10
2010,06,05,14,19,9.10
2010,06,05,14,20,7.30
2010,06,05,14,21,9.60
2010,06,05,14,22,8.70
2010,06,05,14,23,10.00
2010,06,05,14,24,12.20
2010,06,05,14,25,9.80
2010,06,05,14,26,9.70
2010,06,05,14,27,9.40
2010,06,05,14,28,10.20
2010,06,05,14,29,9.20
2010,06,05,14,30,7.60
2010,06,05,14,31,10.00
2010,06,05,14,32,9.90
2010,06,05,14,33,11.60
2010,06,05,14,34,10.70
2010,06,05,14,35,13.90
2010,06,05,14,36,14.10
2010,06,05,14,37,11.80
2010,06,05,14,38,8.70
2010,06,05,14,39,8.10
2010,06,05,14,40,8.50
2010,06,05,14,41,9.90
2010,06,05,14,42,4.50
2010,06,05,14,43,6.40
2010,06,05,14,44,7.40
2010,06,05,14,45,7.30
2010,06,05,14,46,5.80
2010,06,05,14,47,7.50
2010,06,05,14,48,8.70
2010,06,05,14,49,11.00
2010,06,05,14,50,5.40
2010,06,05,14,51,8.90
2010,06,05,14,52,6.70
2010,06,05,14,53,9.40
2010,06,05,14,54,8.50
2010,06,05,14,55,12.40
2010,06,05,14,56,12.30
2010,06,05,14,57,10.10
2010,06,05,14,58,10.50
2010,06,05,14,59,7.10
2010,06,05,15,00,7.90
2010,06,05,15,01,7.70
2010,06,05,15,02,5.70
2010,06,05,15,03,4.30
2010,06,05,15,04,6.40
2010,06,05,15,05,7.60
2010,06,05,15,06,11.50
2010,06,05,15,07,8.10
2010,06,05,15,08,8.30
2010,06,05,15,09,6.10
2010,06,05,15,10,10.60
2010,06,05,15,11,9.40
2010,06,05,15,12,9.50
2010,06,05,15,13,9.60
2010,06,05,15,14,6.00
2010,06,05,15,15,4.20
2010,06,05,15,16,3.30
2010,06,05,15,17,6.10
2010,06,05,15,18,5.90
2010,06,05,15,19,8.70
2010,06,05,15,20,9.50
2010,06,05,15,21,7.80
2010,06,05,15,22,8.10
2010,06,05,15,23,4.90
2010,06,05,15,24,9.10
2010,06,05,15,25,10.90
2010,06,05,15,26,9.40
2010,06,05,15,27,7.10
2010,06,05,15,28,8.10
2010,06,05,15,29,8.40
2010,06,05,15,30,8.50
2010,06,05,15,31,7.10
2010,06,05,15,32,6.40
2010,06,05,15,33,8.40
2010,06,05,15,34,4.80
2010,06,05,15,35,7.00
2010,06,05,15,36,8.50
2010,06,05,15,37,8.70
2010,06,05,15,38,11.40
2010,06,05,15,39,9.50
2010,06,05,15,40,8.30
2010,06,05,15,41,10.80
2010,06,05,15,42,10.20
2010,06,05,15,43,9.90
2010,06,05,15,44,10.20
2010,06,05,15,45,11.50
2010,06,05,15,46,12.60
2010,06,05,15,47,11.00
2010,06,05,15,48,10.40
2010,06,05,15,49,8.90
2010,06,05,15,50,9.20
2010,06,05,15,51,7.10
2010,06,05,15,52,5.70
2010,06,05,15,53,6.30
2010,06,05,15,54,7.40
2010,06,05,15,55,11.10
2010,06,05,15,56,10.00
2010,06,05,15,57,7.70
2010,06,05,15,58,8.70
2010,06,05,15,59,10.90
2010,06,05,16,00,11.90
2010,06,05,16,01,11.60
2010,06,05,16,02,10.80
2010,06,05,16,03,13.40
2010,06,05,16,04,9.40
2010,06,05,16,05,11.70
2010,06,05,16,06,8.70
2010,06,05,16,07,8.30
2010,06,05,16,08,6.90
2010,06,05,16,09,8.80
2010,06,05,16,10,7.50
2010,06,05,16,11,8.60
2010,06,05,16,12,10.80
2010,06,05,16,13,8.90
2010,06,05,16,14,10.50
2010,06,05,16,15,12.20
2010,06,05,16,16,10.00
2010,06,05,16,17,5.80
2010,06,05,16,18,8.30
2010,06,05,16,19,8.60
2010,06,05,16,20,6.70
2010,06,05,16,21,9.70
2010,06,05,16,22,10.90
2010,06,05,16,23,7.90
2010,06,05,16,24,7.50
2010,06,05,16,25,5.80
2010,06,05,16,26,8.20
2010,06,05,16,27,9.00
2010,06,05,16,28,6.20
2010,06,05,16,29,8.00
2010,06,05,16,30,9.30
2010,06,05,16,31,9.10
2010,06,05,16,32,6.20
2010,06,05,16,33,7.90
2010,06,05,16,34,9.70
2010,06,05,16,35,7.70
2010,06,05,16,36,8.80
2010,06,05,16,37,6.10
2010,06,05,16,38,5.70
2010,06,05,16,39,6.30
2010,06,05,16,40,6.70
2010,06,05,16,41,9.60
2010,06,05,16,42,8.50
2010,06,05,16,43,9.30
2010,06,05,16,44,5.10
2010,06,05,16,45,8.70
2010,06,05,16,46,7.20
2010,06,05,16,47,6.60
2010,06,05,16,48,6.60
2010,06,05,16,49,5.20
2010,06,05,16,50,9.40
2010,06,05,16,51,5.40
2010,06,05,16,52,6.90
2010,06,05,16,53,5.20
2010,06,05,16,54,8.30
2010,06,05,16,55,8.90
2010,06,05,16,56,10.10
2010,06,05,16,57,10.30
2010,06,05,16,58,7.20
2010,06,05,16,59,10.50
2010,06,05,17,00,11.30
2010,06,05,17,01,9.30
2010,06,05,17,02,8.10
2010,06,05,17,03,7.80
2010,06,05,17,04,10.60
2010,06,05,17,05,8.70
2010,06,05,17,06,5.20
2010,06,05,17,07,9.30
2010,06,05,17,08,8.70
2010,06,05,17,09,6.40
2010,06,05,17,10,9.70
2010,06,05,17,11,8.10
2010,06,05,17,12,8.30
2010,06,05,17,13,4.70
2010,06,05,17,14,8.80
2010,06,05,17,15,8.80
2010,06,05,17,16,7.80
2010,06,05,17,17,6.50
2010,06,05,17,18,5.30
2010,06,05,17,19,9.20
2010,06,05,17,20,7.50
2010,06,05,17,21,9.20
2010,06,05,17,22,8.60
2010,06,05,17,23,7.20
2010,06,05,17,24,5.40
2010,06,05,17,25,3.90
2010,06,05,17,26,5.70
2010,06,05,17,27,6.50
2010,06,05,17,28,6.20
2010,06,05,17,29,6.40
2010,06,05,17,30,6.90
2010,06,05,17,31,9.90
2010,06,05,17,32,7.00
2010,06,05,17,33,9.00
2010,06,05,17,34,9.00
2010,06,05,17,35,8.10
2010,06,05,17,36,8.20
2010,06,05,17,37,9.70
2010,06,05,17,38,7.80
2010,06,05,17,39,6.50
2010,06,05,17,40,5.30
2010,06,05,17,41,4.70
2010,06,05,17,42,5.40
2010,06,05,17,43,3.30
2010,06,05,17,44,8.60
2010,06,05,17,45,9.10
2010,06,05,17,46,5.70
2010,06,05,17,47,3.90
2010,06,05,17,48,6.40
2010,06,05,17,49,8.20
2010,06,05,17,50,6.20
2010,06,05,17,51,8.60
2010,06,05,17,52,6.40
2010,06,05,17,53,6.70
2010,06,05,17,54,11.50
2010,06,05,17,55,8.90
2010,06,05,17,56,9.10
2010,06,05,17,57,7.70
2010,06,05,17,58,7.80
2010,06,05,17,59,9.30
2010,06,05,18,00,9.10
2010,06,05,18,01,9.20